Location: Calberlah
(52.4230°N, 10.6240°E)
Time: 19:50:26
(UTC+00:00)

Cosmos 1315 Rocket - Pass Details

Date: 19 May 2025
Orbit: 498 x 525 km, 81.2° (Epoch: 20 June)

Event Time Altitude Azimuth Distance (km) Brightness Sun altitude
Exits shadow 20:55:22 15° 171° (S) 1,459 4.4 -11.6°
Maximum altitude 20:58:22 52° 98° (E) 662 3.0 -11.8°
Drops below altitude 10° 21:02:10 10° 22° (NNE) 1,775 5.9 -12.1°
Sets 21:04:21 0° 17° (NNE) 2,666 7.0 -12.3°
